Weather History for Lawrenceville, IL

Change the Weather History Date:

Saturday, July 20, 2013

  Actual Average Record
Temperature  
Mean Temperature 81 °F 78 °F  
Max Temperature 93 °F 88 °F 97 °F (2011)
Min Temperature 69 °F 68 °F 57 °F (2014)
Degree Days  
Heating Degree Days 0 0  
Month to date heating degree days 0 0  
Since 1 June heating degree days 3 7  
Since 1 July heating degree days 0 0  
Cooling Degree Days 16 13  
Month to date cooling degree days 234 260  
Year to date cooling degree days 658 689  
Since 1 June cooling degree days 490 550  
Growing Degree Days 30 (Base 50)    
Moisture  
Dew Point 70 °F    
Average Humidity 78    
Maximum Humidity 100    
Minimum Humidity 56    
Precipitation  
Precipitation 1.41 in 0.16 in 2.00 in (2010)
Month to date precipitation 3.61 2.97  
Year to date precipitation 39.07 24.51  
Sea Level Pressure  
Sea Level Pressure 29.91 in    
Wind  
Wind Speed 9 mph (South)    
Max Wind Speed 26 mph    
Max Gust Speed 35 mph    
Visibility 6 miles    
Events Fog , Rain , Thunderstorm    
T = Trace of Precipitation, MM = Missing Value Source: NWS Daily Summary

Daily Weather History Graph

Daily Weather History Graph

Search for Another Location

Airport:

Trip Planner

Search our weather history database for the weather conditions in past years. The results will help you decide how hot, cold, wet, or windy it might be!

Date:

Astronomy

Jul. 20, 2013 Rise Set
Actual Time 5:41 AM CDT 8:11 PM CDT
Civil Twilight 5:11 AM CDT 8:41 PM CDT
Nautical Twilight 4:33 AM CDT 9:19 PM CDT
Astronomical Twilight 3:50 AM CDT 10:01 PM CDT
Moon 6:14 PM CDT (7/20) 3:21 AM CDT (7/20)
Length of Visible Light 15h 30m
Length of Day
14h 29m
Waxing Gibbous, 94% of the Moon is Illuminated
Jul 20
Waxing Gibbous
Jul 22
Full
Jul 29
Last Quarter
Aug 6
New
Aug 14
First Quarter

Hourly Weather History & Observations

Time (CDT) Temp. Heat Index Dew Point Humidity Pressure Visibility Wind Dir Wind Speed Gust Speed Precip Events Conditions
12:53 AM 73.9 °F - 70.0 °F 87% 29.92 in 6.0 mi South 4.6 mph - N/A   Clear
1:53 AM 72.0 °F - 70.0 °F 93% 29.91 in 6.0 mi South 4.6 mph - N/A   Clear
2:53 AM 73.0 °F - 70.0 °F 90% 29.89 in 7.0 mi SW 4.6 mph - N/A   Clear
3:53 AM 72.0 °F - 70.0 °F 93% 29.88 in 6.0 mi South 4.6 mph - N/A   Clear
4:53 AM 72.0 °F - 69.1 °F 91% 29.88 in 6.0 mi SSW 5.8 mph - N/A   Clear
5:53 AM 72.0 °F - 69.1 °F 91% 29.90 in 4.0 mi Calm Calm - N/A   Clear
6:53 AM 73.9 °F - 71.1 °F 91% 29.90 in 6.0 mi SW 6.9 mph - N/A   Clear
7:53 AM 75.9 °F - 71.1 °F 85% 29.91 in 7.0 mi WSW 11.5 mph - N/A   Clear
8:53 AM 82.0 °F 86.3 °F 71.1 °F 69% 29.90 in 8.0 mi SW 13.8 mph - N/A   Clear
9:53 AM 84.0 °F 89.0 °F 71.1 °F 65% 29.91 in 8.0 mi SW 13.8 mph - N/A   Clear
10:53 AM 87.1 °F 92.8 °F 71.1 °F 59% 29.89 in 8.0 mi SSW 11.5 mph - N/A   Clear
11:33 AM 86.0 °F 91.8 °F 71.6 °F 62% 29.90 in 8.0 mi SW 15.0 mph - N/A Thunderstorm Clear
11:48 AM 84.2 °F 89.6 °F 71.6 °F 66% 29.90 in 8.0 mi South 12.7 mph - N/A   Clear
11:53 AM 89.1 °F 96.0 °F 72.0 °F 57% 29.88 in 8.0 mi SSW 11.5 mph - N/A   Clear
12:53 PM 91.0 °F 99.3 °F 73.0 °F 55% 29.86 in 8.0 mi SSW 16.1 mph - N/A   Clear
1:53 PM 91.0 °F 99.3 °F 73.0 °F 55% 29.86 in 7.0 mi South 12.7 mph 20.7 mph N/A   Mostly Cloudy
2:53 PM 91.9 °F 101.3 °F 73.9 °F 55% 29.82 in 7.0 mi South 17.3 mph 21.9 mph N/A   Scattered Clouds
3:14 PM 87.8 °F 93.8 °F 71.6 °F 58% 29.84 in 6.0 mi South 12.7 mph 21.9 mph N/A Thunderstorm Haze
3:43 PM 75.2 °F - 69.8 °F 83% 29.92 in 7.0 mi NNE 20.7 mph 27.6 mph N/A Thunderstorm Overcast
3:50 PM 73.4 °F - 68.0 °F 83% 29.93 in 6.0 mi NNE 15.0 mph 31.1 mph N/A Thunderstorm Unknown
3:53 PM 73.0 °F - 68.0 °F 84% 29.92 in 6.0 mi NNE 25.3 mph 34.5 mph 0.00 in Rain , Thunderstorm Light Thunderstorms and Rain
4:01 PM 71.6 °F - 68.0 °F 88% 29.93 in 1.8 mi NNE 23.0 mph 34.5 mph 0.10 in Rain , Thunderstorm Heavy Thunderstorms and Rain
4:03 PM 71.6 °F - 69.8 °F 94% 29.93 in 1.2 mi NNE 24.2 mph 32.2 mph 0.20 in Rain , Thunderstorm Heavy Thunderstorms and Rain
4:05 PM 71.6 °F - 69.8 °F 94% 29.93 in 0.8 mi NNE 25.3 mph 32.2 mph 0.32 in Rain , Thunderstorm Heavy Thunderstorms and Rain
4:16 PM 69.8 °F - 68.0 °F 94% 29.93 in 0.5 mi NE 18.4 mph 32.2 mph 0.76 in Fog , Rain , Thunderstorm Heavy Thunderstorms and Rain
4:23 PM 69.8 °F - 68.0 °F 94% 29.94 in 0.8 mi ENE 11.5 mph 24.2 mph 0.94 in Rain , Thunderstorm Heavy Thunderstorms and Rain
4:31 PM 69.8 °F - 69.8 °F 100% 29.94 in 1.2 mi ENE 4.6 mph 17.3 mph 1.06 in Rain , Thunderstorm Heavy Thunderstorms and Rain
4:39 PM 69.8 °F - 69.8 °F 100% 29.92 in 1.5 mi ENE 4.6 mph - 1.14 in Rain , Thunderstorm Heavy Thunderstorms and Rain
4:53 PM 70.0 °F - 68.0 °F 93% 29.91 in 1.8 mi Calm Calm - 1.25 in Rain , Thunderstorm Heavy Thunderstorms and Rain
5:01 PM 71.6 °F - 68.0 °F 88% 29.91 in 3.0 mi Calm Calm - 0.02 in Rain , Thunderstorm Thunderstorms and Rain
5:53 PM 71.1 °F - 69.1 °F 93% 29.88 in 9.0 mi SSE 12.7 mph - 0.03 in Rain , Thunderstorm Light Rain
6:01 PM 71.6 °F - 69.8 °F 94% 29.90 in 8.0 mi South 10.4 mph - 0.00 in Rain Light Rain
6:48 PM 69.8 °F - 68.0 °F 94% 29.89 in 5.0 mi SSE 17.3 mph - 0.05 in Rain , Thunderstorm Rain
6:53 PM 70.0 °F - 68.0 °F 93% 29.88 in 5.0 mi SSE 17.3 mph 24.2 mph 0.06 in Rain , Thunderstorm Light Thunderstorms and Rain
7:29 PM 69.8 °F - 68.0 °F 94% 29.93 in 8.0 mi SW 8.1 mph - 0.03 in Rain Light Rain
7:36 PM 71.6 °F - 68.0 °F 88% 29.92 in 8.0 mi SSW 5.8 mph - 0.03 in Rain , Thunderstorm Light Rain
7:53 PM 70.0 °F - 68.0 °F 93% 29.91 in 8.0 mi SE 8.1 mph - 0.04 in Rain , Thunderstorm Light Rain
8:01 PM 69.8 °F - 68.0 °F 94% 29.93 in 7.0 mi Calm Calm - 0.01 in Rain Light Rain
8:53 PM 71.1 °F - 69.1 °F 93% 29.93 in 10.0 mi North 6.9 mph - 0.02 in Rain Light Rain
9:53 PM 71.1 °F - 69.1 °F 93% 29.94 in 9.0 mi NW 5.8 mph - 0.00 in   Clear
10:53 PM 70.0 °F - 69.1 °F 97% 29.92 in 9.0 mi NNW 3.5 mph - 0.01 in   Clear
11:53 PM 70.0 °F - 69.1 °F 97% 29.92 in 6.0 mi Calm Calm - N/A   Clear